Location: Asheville, NC
(35.6000°N, 82.5500°W)
Time: 15:54:05
(UTC-05:00)

N. Korean satellite - Pass Details

Date: 03 January 2018
Orbit: 459 x 515 km, 97.2° (Epoch: 16 January)

Event Time Altitude Azimuth Distance (km) Brightness Sun altitude
Rises 19:23:20 0° 203° (SSW) 2,612 10.8 -22.5°
Reaches altitude 10° 19:26:01 10° 224° (SW) 1,728 10.1 -23.0°
Maximum altitude 19:28:29 17° 266° (W) 1,352 9.7 -23.5°
Drops below altitude 10° 19:30:57 10° 307° (NW) 1,725 9.8 -24.0°
Sets 19:33:38 0° 329° (NNW) 2,606 10.5 -24.5°
